GW3217 Weather Reports


Display with metric or nautical units.
time (UTC)temp
F
wind
direction
speed
MPH
gust
MPH
rain 1hr
in
rain 24hr
in
rain mn
in
humidity
%
barometer
mb
20260906224952 65 287 0.0 0.0 0.00 0.00 0.00 76 1018.9
20260906224448 66 322 0.0 0.0 0.00 0.00 0.00 71 1019.0
20260906223944 66 321 0.0 0.0 0.00 0.00 0.00 71 1018.7
20260906223440 66 330 0.0 0.0 0.00 0.00 0.00 67 1018.8
20260906222937 66 356 2.0 3.0 0.00 0.00 0.00 67 1019.0
20260906222432 66 326 0.0 1.0 0.00 0.00 0.00 68 1019.0
20260906221929 67 321 0.0 0.0 0.00 0.00 0.00 69 1019.1
20260906221429 67 314 1.0 2.0 0.00 0.00 0.00 69 1018.9
20260906220925 67 311 0.0 0.0 0.00 0.00 0.00 70 1018.9
20260906220420 68 330 1.0 1.0 0.00 0.00 0.00 67 1018.8
20260906215919 68 308 1.0 2.0 0.00 0.00 0.00 67 1018.8
20260906215414 68 315 0.0 0.0 0.00 0.00 0.00 66 1018.8
20260906214911 68 317 1.0 1.0 0.00 0.00 0.00 65 1018.9
20260906214410 69 318 0.0 0.0 0.00 0.00 0.00 68 1018.5
20260906213904 69 307 2.0 2.0 0.00 0.00 0.00 67 1018.5
20260906213359 69 316 0.0 0.0 0.00 0.00 0.00 65 1018.5
20260906212857 69 320 2.0 2.0 0.00 0.00 0.00 66 1018.7
20260906212352 69 344 2.0 2.0 0.00 0.00 0.00 63 1018.5
20260906211851 69 324 0.0 0.0 0.00 0.00 0.00 63 1018.4
20260906211347 69 274 1.0 1.0 0.00 0.00 0.00 66 1018.3
20260906210842 69 317 1.0 1.0 0.00 0.00 0.00 65 1018.3
20260906210337 70 310 0.0 0.0 0.00 0.00 0.00 65 1018.4
20260906205832 69 301 1.0 1.0 0.00 0.00 0.00 66 1018.4
20260906205329 69 335 0.0 0.0 0.00 0.00 0.00 64 1018.2
20260906204824 69 3 2.0 6.0 0.00 0.00 0.00 63 1018.2
20260906204323 70 352 3.0 7.0 0.00 0.00 0.00 61 1018.3
20260906203822 69 316 1.0 1.0 0.00 0.00 0.00 67 1018.4
20260906203318 70 34 2.0 4.0 0.00 0.00 0.00 64 1018.3
20260906202815 70 341 1.0 2.0 0.00 0.00 0.00 62 1018.4
20260906202314 71 321 3.0 4.0 0.00 0.00 0.00 62 1018.1
20260906201809 71 287 0.0 1.0 0.00 0.00 0.00 62 1018.1
20260906201308 72 38 1.0 2.0 0.00 0.00 0.00 63 1018.2
20260906200804 72 26 4.0 4.0 0.00 0.00 0.00 62 1018.1
20260906200300 71 296 2.0 3.0 0.00 0.00 0.00 63 1018.1
20260906195755 73 289 1.0 2.0 0.00 0.00 0.00 62 1018.1
20260906195251 72 307 1.0 2.0 0.00 0.00 0.00 64 1018.1
20260906194747 72 166 2.0 3.0 0.00 0.00 0.00 59 1018.1
20260906194242 72 14 5.0 7.0 0.00 0.00 0.00 58 1018.0
20260906193737 72 290 1.0 1.0 0.00 0.00 0.00 62 1017.9
20260906193232 73 292 0.0 1.0 0.00 0.00 0.00 60 1018.1
20260906192728 72 305 1.0 1.0 0.00 0.00 0.00 60 1017.8
20260906192227 73 307 1.0 1.0 0.00 0.00 0.00 60 1017.9
20260906191722 72 349 1.0 2.0 0.00 0.00 0.00 58 1018.1
20260906191221 73 303 1.0 1.0 0.00 0.00 0.00 61 1017.8
20260906190716 74 295 1.0 1.0 0.00 0.00 0.00 62 1018.0
20260906190211 73 330 2.0 4.0 0.00 0.00 0.00 58 1017.7
20260906185710 73 316 2.0 2.0 0.00 0.00 0.00 63 1017.9
20260906185209 74 342 2.0 3.0 0.00 0.00 0.00 63 1017.8
20260906184703 73 307 1.0 1.0 0.00 0.00 0.00 67 1017.8
20260906184159 72 309 1.0 1.0 0.00 0.00 0.00 65 1017.9
20260906183655 72 306 2.0 2.0 0.00 0.00 0.00 66 1017.9
20260906183151 72 303 2.0 2.0 0.00 0.00 0.00 63 1018.0
20260906182650 71 294 1.0 2.0 0.00 0.00 0.00 64 1017.8
20260906182147 71 1 3.0 3.0 0.00 0.00 0.00 61 1018.2
20260906181642 71 343 2.0 3.0 0.00 0.00 0.00 62 1018.2
20260906181138 73 320 1.0 1.0 0.00 0.00 0.00 66 1017.9
20260906180633 73 8 1.0 2.0 0.00 0.00 0.00 64 1018.1
20260906180132 72 300 1.0 2.0 0.00 0.00 0.00 68 1018.1
20260906175631 72 322 1.0 1.0 0.00 0.00 0.00 67 1018.1
20260906175126 71 311 1.0 1.0 0.00 0.00 0.00 66 1017.9
20260906174624 71 7 2.0 3.0 0.00 0.00 0.00 70 1018.1
20260906174119 71 324 2.0 3.0 0.00 0.00 0.00 69 1017.9
20260906173614 71 307 1.0 1.0 0.00 0.00 0.00 74 1018.1
20260906173110 71 273 1.0 2.0 0.00 0.00 0.00 71 1018.2
20260906172604 69 294 2.0 3.0 0.00 0.00 0.00 71 1018.0
20260906172100 70 307 1.0 1.0 0.00 0.00 0.00 75 1018.2
20260906171559 69 321 0.0 0.0 0.00 0.00 0.00 75 1018.3
20260906171055 67 309 0.0 1.0 0.00 0.00 0.00 76 1018.2
20260906170551 68 316 0.0 0.0 0.00 0.00 0.00 76 1018.4
20260906170049 69 274 3.0 3.0 0.00 0.00 0.00 71 1018.2
20260906165546 70 312 1.0 1.0 0.00 0.00 0.00 72 1018.2
20260906165041 70 300 1.0 1.0 0.00 0.00 0.00 74 1018.2
20260906164541 68 303 3.0 4.0 0.00 0.00 0.00 74 1018.8
20260906164037 67 287 2.0 3.0 0.00 0.00 0.00 80 1018.3
20260906163532 66 314 0.0 0.0 0.00 0.00 0.00 83 1018.4
20260906163027 66 318 0.0 0.0 0.00 0.00 0.00 83 1018.3
20260906162524 68 320 1.0 1.0 0.00 0.00 0.00 81 1018.7
20260906162019 68 319 0.0 1.0 0.00 0.00 0.00 79 1018.7
20260906161515 66 321 1.0 1.0 0.00 0.00 0.00 84 1018.5
20260906161013 67 309 0.0 1.0 0.00 0.00 0.00 83 1018.5
20260906160512 66 12 4.0 7.0 0.00 0.00 0.00 83 1018.8
20260906160011 66 295 0.0 0.0 0.00 0.00 0.00 84 1018.7
20260906155509 66 317 0.0 0.0 0.00 0.00 0.00 84 1018.7
20260906155005 66 322 0.0 0.0 0.00 0.00 0.00 84 1018.7
20260906154500 66 328 0.0 0.0 0.00 0.00 0.00 84 1018.8
20260906153959 67 311 0.0 0.0 0.00 0.00 0.00 82 1018.5
20260906153457 67 309 0.0 1.0 0.00 0.00 0.00 84 1018.8
20260906152953 66 332 0.0 1.0 0.00 0.00 0.00 84 1018.5
20260906152453 66 329 0.0 0.0 0.00 0.00 0.00 83 1018.5
20260906151947 66 314 0.0 0.0 0.00 0.00 0.00 83 1018.4
20260906151442 68 309 0.0 1.0 0.00 0.00 0.00 81 1018.4
20260906150937 68 310 1.0 1.0 0.00 0.00 0.00 81 1018.7
20260906150432 66 12 2.0 3.0 0.00 0.00 0.00 84 1018.5
20260906145926 64 343 2.0 3.0 0.00 0.00 0.00 87 1018.5
20260906145425 65 332 0.0 0.0 0.00 0.00 0.00 88 1018.5
20260906144921 65 319 0.0 0.0 0.00 0.00 0.00 86 1018.5
20260906144421 65 357 2.0 2.0 0.00 0.00 0.00 86 1018.3
20260906143916 66 311 0.0 1.0 0.00 0.00 0.00 85 1018.5
20260906143412 67 321 0.0 0.0 0.00 0.00 0.00 84 1018.3
20260906142907 67 307 0.0 1.0 0.00 0.00 0.00 84 1018.2
20260906142402 66 313 0.0 0.0 0.00 0.00 0.00 84 1018.4
20260906141856 67 110 3.0 3.0 0.00 0.00 0.00 85 1018.5
20260906141350 67 277 1.0 2.0 0.00 0.00 0.00 84 1018.2
20260906140850 66 251 1.0 1.0 0.00 0.00 0.00 85 1018.5
20260906140345 67 348 2.0 2.0 0.00 0.00 0.00 83 1018.2
20260906135842 66 314 2.0 4.0 0.00 0.00 0.00 85 1018.3
20260906135337 65 292 1.0 1.0 0.00 0.00 0.00 88 1018.4
20260906134833 64 323 1.0 1.0 0.00 0.00 0.00 90 1018.3
20260906134328 64 336 2.0 3.0 0.00 0.00 0.00 89 1018.1
20260906133823 64 236 1.0 2.0 0.00 0.00 0.00 90 1018.3
20260906133318 65 54 5.0 7.0 0.00 0.00 0.00 88 1018.2
20260906132813 64 354 1.0 2.0 0.00 0.00 0.00 88 1018.4
20260906132308 64 326 1.0 1.0 0.00 0.00 0.00 89 1018.1
20260906131804 64 319 0.0 1.0 0.00 0.00 0.00 90 1018.0
20260906131259 64 259 1.0 2.0 0.00 0.00 0.00 90 1018.1
20260906130754 64 314 0.0 0.0 0.00 0.00 0.00 89 1018.1
20260906130249 65 317 0.0 1.0 0.00 0.00 0.00 88 1018.1
20260906125749 64 342 2.0 2.0 0.00 0.00 0.00 88 1018.1
20260906125247 64 8 1.0 6.0 0.00 0.00 0.00 88 1018.2
20260906124747 63 315 0.0 1.0 0.00 0.00 0.00 90 1018.1
20260906124243 62 323 2.0 2.0 0.00 0.00 0.00 91 1017.9
20260906123741 62 10 1.0 1.0 0.00 0.00 0.00 92 1018.0
20260906123237 62 315 0.0 0.0 0.00 0.00 0.00 94 1017.9
20260906122736 62 313 0.0 0.0 0.00 0.00 0.00 94 1017.8
20260906122231 61 317 0.0 0.0 0.00 0.00 0.00 94 1017.7
20260906121728 61 327 0.0 0.0 0.00 0.00 0.00 94 1017.9
20260906121224 61 318 0.0 0.0 0.00 0.00 0.00 95 1017.7
20260906120720 60 316 0.0 0.0 0.00 0.00 0.00 94 1017.7
20260906120216 60 330 0.0 1.0 0.00 0.00 0.00 94 1017.8
20260906115712 60 330 1.0 1.0 0.00 0.00 0.00 95 1017.7
20260906115207 60 335 2.0 2.0 0.00 0.00 0.00 95 1017.9
20260906114706 59 326 0.0 1.0 0.00 0.00 0.00 96 1017.8
20260906114155 59 333 0.0 0.0 0.00 0.00 0.00 97 1017.6
20260906113649 59 331 0.0 0.0 0.00 0.00 0.00 97 1017.7
20260906113144 59 332 0.0 0.0 0.00 0.00 0.00 97 1017.8
20260906112643 59 349 2.0 2.0 0.00 0.00 0.00 97 1017.7
20260906112141 59 341 0.0 0.0 0.00 0.00 0.00 98 1017.6
20260906111640 59 325 0.0 0.0 0.00 0.00 0.00 98 1017.5
20260906111134 59 0 2.0 3.0 0.00 0.00 0.00 98 1017.5
20260906110629 59 322 0.0 0.0 0.00 0.00 0.00 98 1017.3
20260906110124 58 328 0.0 0.0 0.00 0.00 0.00 99 1017.3
20260906105618 58 321 0.0 0.0 0.00 0.00 0.00 99 1017.4
20260906105115 58 318 0.0 0.0 0.00 0.00 0.00 99 1017.3
20260906104613 57 327 0.0 0.0 0.00 0.00 0.00 99 1017.2
20260906104102 57 328 0.0 0.0 0.00 0.00 0.00 99 1017.3
20260906103601 57 328 0.0 0.0 0.00 0.00 0.00 99 1016.8
20260906103055 57 328 0.0 0.0 0.00 0.00 0.00 99 1017.0
20260906102549 58 328 0.0 0.0 0.00 0.00 0.00 99 1016.6
20260906102044 58 329 0.0 0.0 0.00 0.00 0.00 99 1016.5
20260906101539 58 308 0.0 0.0 0.00 0.00 0.00 98 1016.7
20260906101034 59 324 0.0 0.0 0.00 0.00 0.00 98 1016.8
20260906100529 59 321 0.0 0.0 0.00 0.00 0.00 98 1016.6
20260906100024 59 323 0.0 0.0 0.00 0.00 0.00 98 1016.6
20260906095519 59 323 0.0 0.0 0.00 0.00 0.00 97 1016.8
20260906095014 59 323 0.0 0.0 0.00 0.00 0.00 98 1016.5
20260906094513 59 323 0.0 0.0 0.00 0.00 0.00 97 1016.5
20260906094009 59 323 0.0 0.0 0.00 0.00 0.00 97 1016.3
20260906093505 59 323 0.0 0.0 0.00 0.00 0.00 97 1016.6
20260906093000 59 326 0.0 0.0 0.00 0.00 0.00 96 1016.2
20260906092459 59 326 0.0 0.0 0.00 0.00 0.00 96 1016.1
20260906091954 59 325 0.0 0.0 0.00 0.00 0.00 95 1016.4
20260906091450 60 322 0.0 0.0 0.00 0.00 0.00 95 1016.3
20260906090947 60 322 0.0 0.0 0.00 0.00 0.00 95 1016.1
20260906090441 60 323 0.0 0.0 0.00 0.00 0.00 95 1016.1
20260906085935 60 322 0.0 0.0 0.00 0.00 0.00 96 1016.1
20260906085435 60 320 0.0 0.0 0.00 0.00 0.00 96 1016.3
20260906084934 60 40 0.0 0.0 0.00 0.00 0.00 96 1016.2
20260906084429 60 324 0.0 0.0 0.00 0.00 0.00 96 1016.2
20260906083928 60 321 0.0 0.0 0.00 0.00 0.00 97 1016.2
20260906083424 60 347 0.0 0.0 0.00 0.00 0.00 98 1016.1
20260906082923 60 324 0.0 0.0 0.00 0.00 0.00 98 1016.3
20260906082419 60 327 0.0 0.0 0.00 0.00 0.00 99 1016.0
20260906081914 60 313 1.0 1.0 0.00 0.00 0.00 99 1015.8
20260906081409 60 324 0.0 0.0 0.00 0.00 0.00 99 1016.1
20260906080906 60 319 1.0 2.0 0.00 0.00 0.00 99 1016.1
20260906080402 60 318 0.0 0.0 0.00 0.00 0.00 99 1015.9
20260906075901 60 318 0.0 0.0 0.00 0.00 0.00 99 1016.1
20260906075356 60 318 0.0 0.0 0.00 0.00 0.00 99 1016.0
20260906074852 60 321 0.0 0.0 0.00 0.00 0.00 99 1015.9
20260906074351 60 321 0.0 0.0 0.00 0.00 0.00 99 1016.0
20260906073850 60 320 0.0 0.0 0.00 0.00 0.00 99 1015.7
20260906073345 59 320 0.0 0.0 0.00 0.00 0.00 99 1015.8
20260906072842 59 317 0.0 0.0 0.00 0.00 0.00 99 1015.9
20260906072337 59 328 0.0 0.0 0.00 0.00 0.00 99 1015.9
20260906071833 59 329 0.0 0.0 0.00 0.00 0.00 99 1015.8
20260906071328 59 328 0.0 0.0 0.00 0.00 0.00 99 1015.8
20260906070824 59 328 0.0 0.0 0.00 0.00 0.00 99 1015.5
20260906070319 60 328 0.0 0.0 0.00 0.00 0.00 99 1015.7
20260906065814 60 329 0.0 0.0 0.00 0.00 0.00 99 1015.6
20260906065309 60 329 0.0 0.0 0.00 0.00 0.00 99 1015.9
20260906064805 60 326 0.0 0.0 0.00 0.00 0.00 99 1015.8
20260906064301 60 326 0.0 0.0 0.00 0.00 0.00 99 1015.7
20260906063801 60 324 0.0 0.0 0.00 0.00 0.00 99 1015.9
20260906063256 60 318 0.0 0.0 0.00 0.00 0.00 99 1015.9
20260906062751 60 318 0.0 0.0 0.00 0.00 0.00 99 1015.9
20260906062250 60 318 0.0 0.0 0.00 0.00 0.00 99 1015.7
20260906061746 59 342 0.0 0.0 0.00 0.00 0.00 99 1015.9
20260906061243 59 326 0.0 0.0 0.00 0.00 0.00 99 1015.8
20260906060737 59 327 0.0 0.0 0.00 0.00 0.00 99 1016.0
20260906060235 59 315 0.0 0.0 0.00 0.00 0.00 99 1016.1
20260906055731 58 327 0.0 0.0 0.00 0.00 0.00 99 1016.2
20260906055226 58 325 0.0 0.0 0.00 0.00 0.00 99 1016.2
20260906054721 58 326 0.0 0.0 0.00 0.00 0.00 99 1016.1
20260906054216 58 326 0.0 0.0 0.00 0.00 0.00 99 1016.1
20260906053713 58 326 0.0 0.0 0.00 0.00 0.00 99 1016.0
20260906053208 58 329 0.0 0.0 0.00 0.00 0.00 99 1016.2
20260906052703 58 331 0.0 0.0 0.00 0.00 0.00 99 1016.3
20260906052159 58 325 0.0 0.0 0.00 0.00 0.00 99 1016.2
20260906051656 59 327 0.0 0.0 0.00 0.00 0.00 99 1016.1
20260906051155 59 332 0.0 0.0 0.00 0.00 0.00 99 1016.2
20260906050651 59 339 0.0 0.0 0.00 0.00 0.00 99 1016.2
20260906050146 59 341 0.0 0.0 0.00 0.00 0.00 99 1016.1
20260906045644 59 329 0.0 0.0 0.00 0.00 0.00 99 1016.3
20260906045140 59 329 0.0 0.0 0.00 0.00 0.00 98 1016.2
20260906044636 59 329 0.0 0.0 0.00 0.00 0.00 98 1016.2
20260906044131 59 320 0.0 0.0 0.00 0.00 0.00 97 1016.2
20260906043627 59 319 0.0 0.0 0.00 0.00 0.00 97 1016.3
20260906043122 60 320 0.0 0.0 0.00 0.00 0.00 96 1016.2
20260906042621 60 330 0.0 0.0 0.00 0.00 0.00 96 1016.3
20260906042115 60 333 0.0 0.0 0.00 0.00 0.00 96 1016.1
20260906041612 60 333 0.0 0.0 0.00 0.00 0.00 96 1016.0
20260906041106 60 324 0.0 0.0 0.00 0.00 0.00 95 1016.0
20260906040602 61 321 0.0 0.0 0.00 0.00 0.00 94 1016.0
20260906040057 62 321 0.0 0.0 0.00 0.00 0.00 93 1016.3
20260906035552 62 320 0.0 0.0 0.00 0.00 0.00 92 1015.9
20260906035048 62 334 0.0 0.0 0.00 0.00 0.00 90 1015.9
20260906034548 62 334 0.0 0.0 0.00 0.00 0.00 90 1016.0
20260906034037 62 336 0.0 0.0 0.00 0.00 0.00 90 1015.9
20260906033532 63 318 0.0 0.0 0.00 0.00 0.00 90 1015.7
20260906033027 63 326 0.0 0.0 0.00 0.00 0.00 89 1015.8
20260906032524 63 338 1.0 1.0 0.00 0.00 0.00 89 1015.7
20260906032018 63 310 0.0 0.0 0.00 0.00 0.00 89 1015.6
20260906031514 63 333 0.0 0.0 0.00 0.00 0.00 90 1015.6
20260906031009 63 324 0.0 0.0 0.00 0.00 0.00 90 1015.5
20260906030503 62 0 0.0 0.0 0.00 0.00 0.00 90 1015.6
20260906030003 62 332 0.0 0.0 0.00 0.00 0.00 92 1015.7
20260906025502 62 358 0.0 0.0 0.00 0.00 0.00 93 1015.4
20260906025001 62 326 0.0 0.0 0.00 0.00 0.00 92 1015.6
20260906024456 62 342 0.0 0.0 0.00 0.00 0.00 92 1015.5
20260906023956 62 327 0.0 0.0 0.00 0.00 0.00 92 1015.7
20260906023453 63 335 0.0 0.0 0.00 0.00 0.00 91 1015.8
20260906022952 63 330 0.0 0.0 0.00 0.00 0.00 91 1015.8
20260906022443 63 313 1.0 1.0 0.00 0.00 0.00 91 1015.6
20260906021937 62 16 1.0 1.0 0.00 0.00 0.00 91 1015.6
20260906021432 62 334 0.0 0.0 0.00 0.00 0.00 91 1015.5
20260906020932 62 319 0.0 0.0 0.00 0.00 0.00 91 1015.8
20260906020426 63 319 0.0 0.0 0.00 0.00 0.00 91 1015.5
20260906015921 63 324 0.0 0.0 0.00 0.00 0.00 90 1015.7
20260906015420 64 330 0.0 0.0 0.00 0.00 0.00 90 1015.4
20260906014915 64 303 0.0 0.0 0.00 0.00 0.00 89 1015.5
20260906014414 64 325 0.0 0.0 0.00 0.00 0.00 88 1015.7
20260906013911 64 320 0.0 0.0 0.00 0.00 0.00 89 1015.6
20260906013406 64 325 0.0 0.0 0.00 0.00 0.00 89 1015.5
20260906012902 64 300 0.0 1.0 0.00 0.00 0.00 87 1015.7
20260906012356 64 344 0.0 1.0 0.00 0.00 0.00 88 1015.4
20260906011855 64 322 0.0 0.0 0.00 0.00 0.00 87 1015.4
20260906011350 64 320 0.0 0.0 0.00 0.00 0.00 87 1015.3
20260906010846 64 3 0.0 0.0 0.00 0.00 0.00 87 1015.4
20260906010342 64 342 0.0 0.0 0.00 0.00 0.00 86 1015.4
20260906005838 65 285 0.0 0.0 0.00 0.00 0.00 86 1015.2
20260906005337 65 332 0.0 0.0 0.00 0.00 0.00 85 1015.1
20260906004836 65 327 0.0 0.0 0.00 0.00 0.00 85 1015.0
20260906004336 65 332 0.0 1.0 0.00 0.00 0.00 85 1015.0
20260906003831 66 316 0.0 0.0 0.00 0.00 0.00 84 1014.9
20260906003326 66 301 0.0 0.0 0.00 0.00 0.00 83 1014.9
20260906002822 66 332 0.0 1.0 0.00 0.00 0.00 83 1015.0
20260906002321 66 321 0.0 0.0 0.00 0.00 0.00 83 1015.1
20260906001817 66 353 0.0 0.0 0.00 0.00 0.00 83 1015.1
20260906001312 66 312 0.0 0.0 0.00 0.00 0.00 83 1014.8
20260906000808 66 325 0.0 0.0 0.00 0.00 0.00 83 1015.0
20260906000303 66 314 0.0 0.0 0.00 0.00 0.00 83 1015.0
20260905235757 66 316 0.0 0.0 0.00 0.00 0.00 83 1014.8
20260905235257 67 314 0.0 0.0 0.00 0.00 0.00 82 1014.6
20260905234752 67 287 2.0 2.0 0.00 0.00 0.00 81 1014.6
20260905234247 67 320 0.0 0.0 0.00 0.00 0.00 81 1014.8
20260905233742 67 340 0.0 1.0 0.00 0.00 0.00 82 1014.9
20260905233241 67 317 0.0 0.0 0.00 0.00 0.00 81 1014.2
20260905232736 67 315 0.0 0.0 0.00 0.00 0.00 81 1014.6
20260905232232 67 330 0.0 0.0 0.00 0.00 0.00 80 1014.5
20260905231728 67 321 0.0 0.0 0.00 0.00 0.00 79 1014.5
20260905231223 68 301 1.0 2.0 0.00 0.00 0.00 78 1014.5
20260905230719 68 286 0.0 0.0 0.00 0.00 0.00 79 1014.5
20260905230216 69 320 0.0 0.0 0.00 0.00 0.00 77 1014.3
20260905225711 69 336 0.0 1.0 0.00 0.00 0.00 76 1014.3